Weather in Krasnokutsk

Ukraine / Kharkiv Region     50°03′49″N   35°09′59″E
temp.,
°C
wind,
m/s
gust,
m/s
humid.,
%
clouds,
%
prec.,
mm/h
press.,
hPa
HPBL,
m
8 march, mon
mon823:000wsw81579100 0.1 1011915
02:00−1wsw71382100 0.1 1010784
05:00−1wsw71388100 0.1 1009707
08:00−1wsw81284100 0.3 1008774
11:00+1w7109099 0.4 1009716
14:00+2wnw7105799 1.0 10101638
17:000wnw5969100 0.1 1010727
20:00−3wnw377865 0.1 1012319
9 march, tue
tue923:00−3w36790 0.0 1012214
02:00−3w359333 0.2 1013337
05:00−3nw4780100 0.4 1014557
08:00−4nw687298 0.4 1016787
11:00−3nw676182 0.0 10171071
14:00−3nw675792 0.1 10191206
17:00−4nnw576294 0.0 10201013
20:00−6nnw466886 0.0 1023851
10 march, wed
wed1023:00−6nnw346698 0.0 1024756
02:00−7nnw347156 0.0 1025570
05:00−7nnw23775 0.0 1026381
08:00−7n227037 0.0 1027422
11:00−4nne114997 0.0 1026714
14:00−3ne104195 0.0 1026866
17:00−3ne114159 0.0 1024820
20:00−4ene124729 0.0 1025174
11 march, thu
thu1123:00−4e11490 0.0 102657
02:00−5ese11500 0.0 102621
05:00−5e11532 0.0 102621
08:00−4e124828 0.0 1027267
11:00−2se223864 0.0 10271018
14:00−1sse223358 0.0 10271384
17:00−1sse224121 0.0 102763
20:00−3se375010 0.0 1027231
12 march, fri
fri1223:00−3sse610520 0.0 1027470
02:00−3sse7125424 0.0 1026651
05:00−3s81359100 0.0 1025897
08:00−2s101553100 0.0 10231070
11:000s111644100 0.0 10211322
14:00−1s111775100 0.4 10191255
17:00−2s121892100 2.0 10151155
20:00−2s111892100 3.6 1015954